This demonstration page uses our WeatherBlox Daily Observations layout. Learn more.

Left ArrowRight Arrow

31.84235, -102.49876

Hourly Observations for May 14, 2015

Temp ( °F °C ) Dew Point ( °F °C ) Humidity (%) Winds ( mph kmh ) Pressure ( in mb ) Visibility ( mi km ) Precip ( " mm )
12:53 am 00:53 Clear 64 17.8 59 15 84 84 S 15 24 29.94 1014 10 16 0.00 0.00
1:29 am 01:29 Mostly Cloudy 63 17.2 58 14.4 84 84 S 15 24 29.97 1015 10 16 0.00 0.00
1:53 am 01:53 Cloudy 63 17.2 59 15 87 87 S 13 20 29.95 1014 9 14 0.00 0.00
2:53 am 02:53 Cloudy 64 17.8 59 15 84 84 S 16 26 29.93 1014 9 14 0.00 0.00
3:33 am 03:33 Cloudy 64 17.8 59 15 84 84 S 15 24 29.97 1015 10 16 0.00 0.00
3:53 am 03:53 Cloudy 65 18.3 59 15 81 81 S 16 26 29.93 1013 10 16 0.00 0.00
4:53 am 04:53 Cloudy 65 18.3 59 15 81 81 S 10 17 29.92 1013 10 16 0.00 0.00
5:53 am 05:53 Mostly Cloudy 65 18.3 60 15.6 84 84 S 9 15 29.92 1013 10 16 0.00 0.00
6:02 am 06:02 Partly Cloudy 64 17.8 60 15.6 87 87 S 8 13 29.97 1015 10 16 0.00 0.00
6:16 am 06:16 Mostly Cloudy 64 17.8 60 15.6 87 87 SSE 6 9 29.97 1015 10 16 0.00 0.00
6:53 am 06:53 Partly Cloudy 63 17.2 59 15 87 87 SSE 6 9 29.93 1014 8 13 0.00 0.00
7:45 am 07:45 Mostly Cloudy 64 17.8 60 15.6 87 87 SE 6 9 29.97 1015 7 11 0.00 0.00
7:53 am 07:53 Cloudy 65 18.3 60 15.6 84 84 SSE 12 19 29.96 1014 7 11 0.00 0.00
8:53 am 08:53 Cloudy with Haze 66 18.9 60 15.6 81 81 SSE 14 22 29.97 1015 6 10 0.00 0.00
9:25 am 09:25 Mostly Sunny 68 20 60 15.6 76 76 S 12 19 29.97 1015 7 11 0.00 0.00
9:53 am 09:53 Partly Cloudy 69 20.6 60 15.6 73 73 SSE 14 22 29.97 1015 7 11 0.00 0.00
10:53 am 10:53 Sunny 72 22.2 61 16.1 68 68 SSE 12 19 29.97 1015 8 13 0.00 0.00
11:53 am 11:53 Mostly Sunny 75 23.9 62 16.7 64 64 S 13 20 29.97 1015 9 14 0.00 0.00
12:53 pm 12:53 Sunny 77 25 62 16.7 60 60 S 13 20 29.95 1014 10 16 0.00 0.00
1:53 pm 13:53 Sunny 79 26.1 61 16.1 54 54 S 13 20 29.92 1013 10 16 0.00 0.00
2:53 pm 14:53 Mostly Sunny 81 27.2 61 16.1 51 51 SSE 20 31 29.89 1012 10 16 0.00 0.00
3:53 pm 15:53 Sunny 80 26.7 61 16.1 52 52 SSE 17 28 29.85 1011 9 14 0.00 0.00
4:53 pm 16:53 Mostly Sunny 80 26.7 60 15.6 51 51 SSE 16 26 29.81 1010 10 16 0.00 0.00
5:53 pm 17:53 Mostly Sunny 79 26.1 61 16.1 54 54 S 14 22 29.81 1009 9 14 0.00 0.00
6:53 pm 18:53 Partly Cloudy 77 25 61 16.1 58 58 SSE 12 19 29.81 1010 8 13 0.00 0.00
7:53 pm 19:53 Mostly Sunny 75 23.9 61 16.1 62 62 S 16 26 29.80 1009 8 13 0.00 0.03
8:35 pm 20:35 Partly Cloudy with Nearby Thunderstorms 75 23.9 62 16.7 64 64 WSW 18 30 29.77 1008 8 13 0.00 0.00
8:43 pm 20:43 Mostly Cloudy with Thunderstorms 70 21.1 51 10.6 51 51 W 16 26 29.85 1011 9 14 0.00 0.03
8:53 pm 20:53 Mostly Cloudy with Strong Thunderstorms 61 16.1 55 12.8 81 81 W 13 20 29.86 1011 2 3 0.15 3.81
9:00 pm 21:00 Cloudy with Strong Thunderstorms 62 16.7 52 11.1 70 70 W 14 22 29.88 1012 2 3 0.08 2.03
9:04 pm 21:04 Cloudy with Thunderstorms 62 16.7 53 11.7 73 73 SSW 12 19 29.88 1012 3 5 0.08 2.03
9:31 pm 21:31 Mostly Clear with Nearby Thunderstorms 63 17.2 55 12.8 76 76 SW 6 9 29.85 1011 10 16 0.09 2.29
9:49 pm 21:49 Clear 66 19 54 12 64 64 SSW 8 13 29.83 1010 10 16 0.09 2.29
9:53 pm 21:53 Clear 66 18.9 54 12.2 65 65 SSW 8 13 29.83 1010 10 16 0.09 2.29
10:53 pm 22:53 Clear 64 17.8 57 13.9 78 78 SSE 8 13 29.85 1011 10 16 0.00 0.00
11:53 pm 23:53 Clear 66 18.9 59 15 78 78 SSE 6 9 29.83 1010 10 16 0.00 0.00

Powered by AerisWeather